Weather History for KEGE - November, 2012

Change the Weather History Date:

Monday, November 19, 2012

  Actual Average (KASE) Record (KASE)
Temperature  
Mean Temperature 40 °F 28 °F  
Max Temperature 51 °F 39 °F - ()
Min Temperature 28 °F 16 °F - ()
Degree Days  
Heating Degree Days 26 37  
Month to date heating degree days 630  
Since 1 July heating degree days 1885  
Cooling Degree Days 0 0  
Month to date cooling degree days 0  
Year to date cooling degree days 39  
Moisture  
Dew Point 31 °F    
Average Humidity 82    
Maximum Humidity 100    
Minimum Humidity 41    
Precipitation  
Precipitation 0.00 in 0.05 in - ()
Month to date precipitation 0.94  
Year to date precipitation 15.69  
Sea Level Pressure  
Sea Level Pressure 30.32 in    
Wind  
Wind Speed 2 mph (ESE)    
Max Wind Speed 6 mph    
Max Gust Speed -    
Visibility 8 miles    
Events Fog    
T = Trace of Precipitation, MM = Missing Value Source: NWS Daily Summary

Daily Weather History Graph

Daily Weather History Graph

Search for Another Location

Airport or City:

Trip Planner

Search our weather history database for the weather conditions in past years. The results will help you decide how hot, cold, wet, or windy it might be!

Date:

Astronomy

Nov. 19, 2012 Rise Set
Actual Time 6:57 AM MST 4:48 PM MST
Civil Twilight 6:27 AM MST 5:18 PM MST
Nautical Twilight 5:55 AM MST 5:50 PM MST
Astronomical Twilight 5:23 AM MST 6:22 PM MST
Moon 12:01 PM MST (11/19) 11:18 PM MST (11/19)
Length of Visible Light 10h 50m
Length of Day
9h 51m
Waxing Crescent, 41% of the Moon is Illuminated
Nov 19
Waxing Crescent
Nov 20
First Quarter
Nov 28
Full
Dec 6
Last Quarter
Dec 13
New

Hourly Weather History & Observations

Time (MST) Temp. Windchill Dew Point Humidity Pressure Visibility Wind Dir Wind Speed Gust Speed Precip Events Conditions
6:50 AM 28.4 °F - 26.6 °F 93% 30.31 in 5.0 mi Calm Calm - N/A   Mostly Cloudy
7:50 AM 30.2 °F - 28.4 °F 93% 30.33 in 1.0 mi Calm Calm - N/A   Mostly Cloudy
8:50 AM 32.0 °F - 32.0 °F 100% 30.34 in 0.2 mi Calm Calm - N/A Fog Fog
9:50 AM 33.8 °F - 33.8 °F 100% 30.34 in 0.2 mi Calm Calm - N/A Fog Fog
10:50 AM 35.6 °F 32.8 °F 33.8 °F 93% 30.34 in 1.0 mi SSW 3.5 mph - N/A   Overcast
11:06 AM 37.4 °F - 35.6 °F 93% 30.34 in 7.0 mi Calm Calm - N/A   Scattered Clouds
11:59 AM 42.8 °F - 35.6 °F 76% 30.29 in 10.0 mi Calm Calm - N/A   Scattered Clouds
12:50 PM 46.4 °F - 33.8 °F 62% 30.27 in 10.0 mi Calm Calm - N/A   Scattered Clouds
1:50 PM 50.0 °F - 30.2 °F 47% 30.25 in 10.0 mi NW 5.8 mph - N/A   Scattered Clouds
2:54 PM 51.8 °F - 28.4 °F 41% 30.25 in 10.0 mi WSW 5.8 mph - N/A   Scattered Clouds
3:51 PM 51.8 °F - 30.2 °F 44% 30.26 in 10.0 mi Calm Calm - N/A   Mostly Cloudy
4:51 PM 46.4 °F - 32.0 °F 57% 30.28 in 10.0 mi Calm Calm - N/A   Scattered Clouds
5:58 PM 39.2 °F 37.0 °F 32.0 °F 75% 30.30 in 10.0 mi East 3.5 mph - N/A   Partly Cloudy
6:50 PM 37.4 °F 32.8 °F 32.0 °F 81% 30.31 in 10.0 mi East 5.8 mph - N/A   Partly Cloudy
7:15 PM 35.6 °F 30.7 °F 32.0 °F 87% 30.31 in 10.0 mi ESE 5.8 mph - N/A   Clear
7:35 PM 35.6 °F 30.7 °F 30.2 °F 81% 30.32 in 10.0 mi East 5.8 mph - N/A   Clear
7:55 PM 35.6 °F 30.7 °F 30.2 °F 81% 30.32 in 10.0 mi SE 5.8 mph - N/A   Clear
8:15 PM 35.6 °F - 30.2 °F 81% 30.32 in 10.0 mi Calm Calm - N/A   Clear
8:35 PM 33.8 °F 30.8 °F 30.2 °F 87% 30.33 in 10.0 mi SE 3.5 mph - N/A   Clear
8:55 PM 33.8 °F 29.6 °F 28.4 °F 81% 30.33 in 10.0 mi SE 4.6 mph - N/A   Clear
9:15 PM 33.8 °F 29.6 °F 30.2 °F 87% 30.34 in 10.0 mi East 4.6 mph - N/A   Clear
9:35 PM 32.0 °F 27.5 °F 30.2 °F 93% 30.34 in 10.0 mi ESE 4.6 mph - N/A   Clear
9:55 PM 32.0 °F 28.7 °F 30.2 °F 93% 30.34 in 10.0 mi East 3.5 mph - N/A   Clear
10:15 PM 30.2 °F - 28.4 °F 93% 30.35 in 10.0 mi Calm Calm - N/A   Clear
10:35 PM 32.0 °F - 28.4 °F 87% 30.34 in 10.0 mi Calm Calm - N/A   Clear
10:55 PM 30.2 °F 25.4 °F 28.4 °F 93% 30.35 in 10.0 mi East 4.6 mph - N/A   Clear
11:15 PM 30.2 °F 24.3 °F 28.4 °F 93% 30.36 in 10.0 mi East 5.8 mph - N/A   Clear
11:35 PM 28.4 °F 23.3 °F 28.4 °F 100% 30.37 in 10.0 mi East 4.6 mph - N/A   Clear
11:55 PM 28.4 °F - 28.4 °F 100% 30.37 in 10.0 mi Calm Calm - N/A   Clear